Location: Olsztyn
(53.7767°N, 20.4765°E)
Time: 20:51:03
(UTC+02:00)

Envisat - Pass Details

Date: 24 February 2024
Orbit: 762 x 764 km, 98.3° (Epoch: 21 April)

Event Time Altitude Azimuth Distance (km) Brightness Sun altitude
Rises 03:24:03 0° 15° (NNE) 3,246 6.8 -29.0°
Reaches altitude 10° 03:26:21 10° 15° (NNE) 2,315 5.9 -28.7°
Enters shadow 03:30:48 68° 14° (NNE) 826 3.1 -28.1°
